Back to catalog

ONEWEB-0347

AliveCommunicationsPO
NORAD 49280·PAYLOAD·🇬🇧 United Kingdom

Launched Oct 14, 2021 from Vostochny Cosmodrome

Loading…

Next Passes (next 24 hours)

TLE

FreshSource: CelesTrak SupGP

Epoch: Sep 14, 2026, 16:31 UTC

1 49280C 21090B   26257.68833750 -.00002024  00000+0 -49830-2 0  2579
2 49280  87.9144 256.5869 0002181  84.5155  27.7422 13.20773561    19

Track ONEWEB-0347 in real time with AllMySat

Download on the App Store